When you browse on this site, cookies collect data to enhance your experience and personalize the content and advertising you see.
Visit our Privacy Policy to learn more. By continuing to use the site, you agree to this use of cookies and data.
  • In Hungary
  • List of Countries
  • For 7 days
  • Water Temperature
  • Satellite Maps
  • Weather Map
  • News
  • Weather Widgets
  • user-avatar
    Login

    Hourly Weather Sanlucar de Barrameda

    Today, 17 January, Thursday

    Time Temperature Precipitation Wind Pressure Humidity
    00:00 +11°C° 0 mm 1 mps 762 mmHg 87%
    01:00 +11°C° 0 mm 1 mps 762 mmHg 87%
    02:00 +10°C° 0 mm 1 mps 762 mmHg 88%
    03:00 +9°C° 0 mm 2 mps 762 mmHg 89%
    04:00 +9°C° 0 mm 2 mps 762 mmHg 89%
    05:00 +9°C° 0 mm 2 mps 762 mmHg 89%
    06:00 +8°C° 0 mm 2 mps 762 mmHg 90%
    07:00 +9°C° 0 mm 2 mps 762 mmHg 88%
    08:00 +9°C° 0 mm 2 mps 762 mmHg 86%
    09:00 +9°C° 0 mm 2 mps 762 mmHg 85%
    10:00 +12°C° 0 mm 2 mps 762 mmHg 79%
    11:00 +13°C° 0 mm 2 mps 762 mmHg 73%
    12:00 +14°C° 0 mm 2 mps 762 mmHg 67%
    13:00 +15°C° 0 mm 2 mps 762 mmHg 64%
    14:00 +15°C° 0 mm 2 mps 762 mmHg 61%
    15:00 +16°C° 0 mm 2 mps 761 mmHg 59%
    16:00 +15°C° 0 mm 2 mps 761 mmHg 62%
    17:00 +14°C° 0 mm 2 mps 761 mmHg 66%
    18:00 +13°C° 0 mm 2 mps 762 mmHg 70%
    19:00 +12°C° 0.3 mm 3 mps 762 mmHg 71%
    20:00 +12°C° 0.3 mm 3 mps 762 mmHg 72%
    21:00 +11°C° 0.3 mm 3 mps 762 mmHg 73%
    22:00 +11°C° 0 mm 3 mps 763 mmHg 75%
    23:00 +10°C° 0 mm 3 mps 763 mmHg 76%

    Tomorrow, 18 January, Friday

    Time Temperature Precipitation Wind Pressure Humidity
    00:00 +10°C° 0 mm 3 mps 763 mmHg 78%
    01:00 +9°C° 0 mm 3 mps 763 mmHg 79%
    02:00 +9°C° 0 mm 3 mps 763 mmHg 81%
    03:00 +8°C° 0 mm 3 mps 763 mmHg 83%
    04:00 +8°C° 0 mm 3 mps 763 mmHg 83%
    05:00 +8°C° 0 mm 3 mps 763 mmHg 84%
    06:00 +8°C° 0 mm 3 mps 763 mmHg 85%
    07:00 +8°C° 0 mm 3 mps 763 mmHg 83%
    08:00 +8°C° 0 mm 3 mps 764 mmHg 81%
    09:00 +9°C° 0 mm 3 mps 764 mmHg 78%
    10:00 +10°C° 0 mm 3 mps 764 mmHg 72%
    11:00 +11°C° 0 mm 3 mps 764 mmHg 66%
    12:00 +13°C° 0 mm 3 mps 764 mmHg 60%
    13:00 +13°C° 0 mm 3 mps 764 mmHg 58%
    14:00 +14°C° 0 mm 3 mps 764 mmHg 56%
    15:00 +14°C° 0 mm 3 mps 763 mmHg 53%
    16:00 +14°C° 0 mm 3 mps 764 mmHg 57%
    17:00 +13°C° 0 mm 3 mps 764 mmHg 61%
    18:00 +12°C° 0 mm 3 mps 764 mmHg 64%
    19:00 +12°C° 0 mm 4 mps 764 mmHg 64%
    20:00 +11°C° 0 mm 4 mps 765 mmHg 64%
    21:00 +11°C° 0 mm 4 mps 765 mmHg 64%
    22:00 +11°C° 0 mm 4 mps 765 mmHg 64%
    23:00 +11°C° 0 mm 4 mps 765 mmHg 64%

    Day after tomorrow, 19 January, Saturday

    Time Temperature Precipitation Wind Pressure Humidity
    00:00 +10°C° 0 mm 4 mps 765 mmHg 64%
    01:00 +10°C° 0 mm 4 mps 765 mmHg 65%
    02:00 +11°C° 0 mm 3 mps 765 mmHg 66%
    03:00 +11°C° 0 mm 3 mps 765 mmHg 68%
    04:00 +11°C° 0.1 mm 3 mps 765 mmHg 72%
    05:00 +12°C° 0.1 mm 2 mps 765 mmHg 76%
    06:00 +12°C° 0.1 mm 2 mps 764 mmHg 80%
    07:00 +12°C° 0.2 mm 2 mps 765 mmHg 81%
    08:00 +11°C° 0.2 mm 3 mps 765 mmHg 82%
    09:00 +11°C° 0.2 mm 3 mps 765 mmHg 84%
    10:00 +12°C° 1.3 mm 3 mps 765 mmHg 84%
    11:00 +13°C° 1.3 mm 4 mps 765 mmHg 85%
    12:00 +14°C° 1.3 mm 4 mps 765 mmHg 86%
    13:00 +15°C° 0.5 mm 5 mps 764 mmHg 83%
    14:00 +15°C° 0.5 mm 7 mps 763 mmHg 81%
    15:00 +16°C° 0.5 mm 8 mps 762 mmHg 78%
    16:00 +16°C° 1.1 mm 8 mps 762 mmHg 80%
    17:00 +15°C° 1.1 mm 9 mps 762 mmHg 83%
    18:00 +14°C° 1.1 mm 10 mps 761 mmHg 85%
    19:00 +15°C° 0.9 mm 9 mps 762 mmHg 84%
    20:00 +15°C° 0.9 mm 8 mps 762 mmHg 84%
    21:00 +13°C° 0.9 mm 8 mps 762 mmHg 83%
    22:00 +14°C° 0 mm 7 mps 762 mmHg 83%
    23:00 +12°C° 0 mm 7 mps 762 mmHg 83%

    20 January, Sunday

    Time Temperature Precipitation Wind Pressure Humidity
    00:00 +13°C° 0 mm 6 mps 762 mmHg 83%
    01:00 +12°C° 0.1 mm 7 mps 762 mmHg 83%
    02:00 +12°C° 0.1 mm 8 mps 762 mmHg 83%
    03:00 +12°C° 0.1 mm 8 mps 762 mmHg 83%
    04:00 +11°C° 0 mm 8 mps 762 mmHg 83%
    05:00 +10°C° 0 mm 9 mps 762 mmHg 83%
    06:00 +10°C° 0 mm 9 mps 762 mmHg 83%
    07:00 +10°C° 0 mm 9 mps 762 mmHg 81%
    08:00 +10°C° 0 mm 9 mps 763 mmHg 79%
    09:00 +10°C° 0 mm 9 mps 764 mmHg 78%
    10:00 +11°C° 0 mm 8 mps 764 mmHg 73%
    11:00 +12°C° 0 mm 7 mps 764 mmHg 67%
    12:00 +14°C° 0 mm 6 mps 764 mmHg 62%
    13:00 +15°C° 0 mm 6 mps 764 mmHg 60%
    14:00 +15°C° 0 mm 5 mps 764 mmHg 58%
    15:00 +16°C° 0 mm 5 mps 763 mmHg 56%
    16:00 +15°C° 0 mm 5 mps 764 mmHg 59%
    17:00 +14°C° 0 mm 5 mps 764 mmHg 62%
    18:00 +14°C° 0 mm 4 mps 764 mmHg 64%
    19:00 +14°C° 0 mm 4 mps 765 mmHg 64%
    20:00 +13°C° 0 mm 5 mps 765 mmHg 64%
    21:00 +13°C° 0 mm 5 mps 766 mmHg 63%
    22:00 +12°C° 0 mm 4 mps 766 mmHg 65%
    23:00 +11°C° 0 mm 4 mps 766 mmHg 66%

    21 January, Monday

    Time Temperature Precipitation Wind Pressure Humidity
    00:00 +11°C° 0 mm 4 mps 766 mmHg 67%
    01:00 +10°C° 0 mm 4 mps 766 mmHg 68%
    02:00 +10°C° 0 mm 4 mps 766 mmHg 70%
    03:00 +10°C° 0 mm 4 mps 766 mmHg 71%
    04:00 +8°C° 0 mm 4 mps 766 mmHg 71%
    05:00 +8°C° 0 mm 5 mps 766 mmHg 71%
    06:00 +8°C° 0 mm 5 mps 766 mmHg 72%
    07:00 +8°C° 0 mm 5 mps 767 mmHg 69%
    08:00 +8°C° 0 mm 6 mps 767 mmHg 66%
    09:00 +8°C° 0 mm 6 mps 768 mmHg 64%
    10:00 +10°C° 0 mm 6 mps 768 mmHg 59%
    11:00 +11°C° 0 mm 6 mps 768 mmHg 54%
    12:00 +14°C° 0 mm 6 mps 768 mmHg 49%
    13:00 +14°C° 0 mm 6 mps 767 mmHg 47%
    14:00 +15°C° 0 mm 5 mps 767 mmHg 45%
    15:00 +15°C° 0 mm 5 mps 766 mmHg 43%
    16:00 +14°C° 0 mm 4 mps 767 mmHg 47%
    17:00 +13°C° 0 mm 3 mps 767 mmHg 50%
    18:00 +12°C° 0 mm 3 mps 767 mmHg 54%
    19:00 +12°C° 0 mm 2 mps 767 mmHg 56%
    20:00 +12°C° 0 mm 2 mps 767 mmHg 58%
    21:00 +10°C° 0 mm 2 mps 768 mmHg 59%
    22:00 +11°C° 0 mm 1 mps 768 mmHg 60%
    23:00 +11°C° 0 mm 1 mps 768 mmHg 61%

    22 January, Tuesday

    Time Temperature Precipitation Wind Pressure Humidity
    00:00 +10°C° 0 mm 1 mps 768 mmHg 61%
    01:00 +10°C° 0 mm 1 mps 767 mmHg 63%
    02:00 +8°C° 0 mm 2 mps 767 mmHg 64%
    03:00 +8°C° 0 mm 2 mps 767 mmHg 65%
    04:00 +8°C° 0 mm 2 mps 767 mmHg 67%
    05:00 +7°C° 0 mm 2 mps 766 mmHg 68%
    06:00 +7°C° 0 mm 2 mps 766 mmHg 69%
    07:00 +8°C° 0 mm 2 mps 766 mmHg 68%
    08:00 +8°C° 0 mm 3 mps 767 mmHg 67%
    09:00 +9°C° 0 mm 3 mps 767 mmHg 67%
    10:00 +10°C° 0 mm 4 mps 766 mmHg 63%
    11:00 +10°C° 0 mm 5 mps 766 mmHg 59%
    12:00 +12°C° 0 mm 5 mps 766 mmHg 55%
    13:00 +13°C° 0 mm 6 mps 765 mmHg 58%
    14:00 +13°C° 0 mm 6 mps 764 mmHg 61%
    15:00 +12°C° 0 mm 7 mps 763 mmHg 63%
    16:00 +12°C° 0 mm 7 mps 762 mmHg 66%
    17:00 +12°C° 0 mm 8 mps 762 mmHg 69%
    18:00 +12°C° 0 mm 8 mps 762 mmHg 72%
    19:00 +12°C° 0.3 mm 9 mps 762 mmHg 70%
    20:00 +11°C° 0.3 mm 10 mps 761 mmHg 69%
    21:00 +11°C° 0.3 mm 11 mps 761 mmHg 68%
    22:00 +9°C° 0 mm 10 mps 761 mmHg 69%
    23:00 +8°C° 0 mm 9 mps 761 mmHg 70%
    Show more